Location: Unspecified
(0.0000°N, 0.0000°E)
Time: 06:40:29
(UTC+00:00)

Transit 2A - Visible Passes

Search period start: 05 May 2016 00:00
Search period end: 15 May 2016 00:00
Orbit: 594 x 966 km, 66.7° (Epoch: 04 May)

Date Brightness Start Highest point End Pass type
(mag) Time Alt. Az. Time Alt. Az. Time Alt. Az.
10 May 8.9 20:42:12 10° N 20:42:31 11° N 20:42:31 11° N visible
11 May 8.5 20:09:00 10° NNE 20:10:03 14° NNE 20:10:03 14° NNE visible
12 May 8.4 19:36:23 10° NNE 19:37:39 13° NE 19:37:39 13° NE visible
12 May 9.0 21:17:21 10° NW 21:18:12 14° NW 21:18:12 14° NW visible
13 May 8.1 20:43:08 10° NNW 20:45:52 27° NNW 20:45:52 27° NNW visible
14 May 7.0 20:09:12 10° NNW 20:13:36 46° N 20:13:36 46° N visible
